Regional Weather Roundup
Issued by NWS Charleston, SC

Current Version | Previous Version | Graphics & Text | Print | Product List | Glossary On
Versions: 1 2 3 4 5 6 7 8 9 10 11 12 13 14 15 16 17 18 19 20 21 22 23 24 25 26 27 28 29 30 31 32 33 34 35 36 37 38 39 40 41 42 43 44 45 46 47 48 49 50
000
ASUS42 KCHS 301025
RWRCHS

REGIONAL WEATHER ROUNDUP
NATIONAL WEATHER SERVICE CHARLESTON SC
600 AM EDT SAT AUG 30 2014

NOTE: "FAIR" INDICATES FEW OR NO CLOUDS BELOW 12,000 FEET WITH NO
SIGNIFICANT WEATHER AND/OR OBSTRUCTIONS TO VISIBILITY.

NOT ALL STATIONS ARE QUALITY CONTROLLED BY THE NATIONAL
WEATHER SERVICE. USE DATA WITH CAUTION...ESPECIALLY
DEWPOINT OBSERVATIONS.

SCZ027-030-031-034>040-042>050-301100-
...SOUTH CAROLINA...

CITY           SKY/WX    TMP DP  RH WIND       PRES   REMARKS
N CHARLESTON   CLEAR     74  72  93 CALM      30.15R
WATERFRONT PRK   N/A     81 N/A N/A CALM        N/A
FORT JOHNSON   NOT AVBL
MOUNT PLEASANT LGT RAIN  73  72  94 CALM      30.15R
JOHNS ISLAND   SUNNY     73  73 100 CALM      30.15R
PINOPOLIS        N/A     79  75  89 SE2       30.08R
MONCKS CORNER    N/A     72  72 100 CALM      30.15R
SUMMERVILLE    FAIR      70  70 100 CALM      30.16R
BEAUFORT MCAS  PTCLDY    75  73  93 CALM      30.13R FOG
BEAUFORT ARPT  PTSUNNY   77  77 100 E3        30.13R
HILTON HEAD IS NOT AVBL
GEORGETOWN     NOT AVBL
WALTERBORO     SUNNY     70 N/A N/A CALM      30.15S
ORANGEBURG     PTCLDY    71  69  93 CALM      30.15S
BARNWELL       FAIR      72  70  94 E3        30.15S
AIKEN          FAIR      70  70 100 CALM      30.18S
MANNING        CLOUDY    70 N/A N/A CALM      30.16R VSB 1/2
KINGSTREE      NOT AVBL
COLUMBIA       PTCLDY    73  69  87 E3        30.15R
SUMTER         FOG       73  73 100 NE2       30.15S VSB 1/2
FLORENCE       CLOUDY    74  72  93 N3        30.17R
MYRTLE BEACH   CLEAR     75  72  88 W3        30.16R
N MYRTLE BEACH MOCLDY    74  72  93 CALM      30.16R

$$

GAZ063-065-086>088-099>101-113>116-118-119-134-136>141-150-301100-
...GEORGIA...

CITY           SKY/WX    TMP DP  RH WIND       PRES   REMARKS
SAVANNAH ARPT  PTCLDY    75  72  90 NE3       30.13R
HUNTER AAF     PTCLDY    76  74  93 CALM      30.10S
FORT STEWART   CLEAR     72  70  95 CALM      30.11R
STATESBORO     NOT AVBL
SYLVANIA       MOSUNNY   65  65 100 CALM      30.15R FOG
CLAXTON        NOT AVBL
THOMSON        CLEAR     73  73 100 CALM      30.19R
AUGUSTA-BUSH   CLEAR     68  67  96 CALM      30.14R
AUGUSTA-DANIEL CLEAR     75  72  90 SE5       30.15R
SWAINSBORO     FAIR      75  75 100 SE3       30.14R
VIDALIA          N/A     73  72  94 CALM      30.13R
ALMA           CLEAR     73  72  96 CALM      30.11S
WAYCROSS       CLEAR     76  76  98 CALM      30.11R
JESUP            N/A     73  73 100 CALM      30.11S
BRUNSWICK      CLEAR     73  72  94 CALM      30.12R
SAINT SIMONS   CLEAR     76  74  93 CALM      30.11R

$$

SCZ027-028-034-036>038-045-046-048>050-GAZ119-141-301100-
...LAKE AND SUPPLEMENTAL COASTAL OBSERVATIONS...

STATION/POSITION TIME  TEMP    WIND        PRES    WAVE   SWELL
                       AIR SEA DIR/SP/G            HT/PER HT/PER/DIR
                 (UTC) (F)     (DEG/KT/KT) (MB)    (FT/S) (FT/S/D)
UPR LAKE MARION  NOT AVBL
WINYAH BAY       1000   74     310/  2     1020.0S
LAKE MURRAY      1000   76     100/  5/  6 1020.3S
ACE BASIN NERRS  1000   75        CALM     1020.0S
FORT PULASKI     1000   81      40/  1/  1 1020.2R
SAPELO ISLAND    1000   76        CALM     1020.0S

$$

ANZ835-935-AMZ111-154-330-350-352-354-374-450-454-472-301100-
...C-MAN AND BUOY OBSERVATIONS...

STATION/POSITION TIME  TEMP    WIND        PRES    WAVE   SWELL
                       AIR SEA DIR/SP/G            HT/PER HT/PER/DIR
                 (UTC) (F)     (DEG/KT/KT) (MB)    (FT/S) (FT/S/D)
FOLLY BEACH CMAN 1000   81      70/  3/  3 1021.1R
BUOY 41004       1000   82 83   30/  2/  4 1020.3R   3/ 8   3/ 8
BUOY 41008       1000   82 84   CALM  /  2 1019.6R   2/ 8   2/110/ 8
5E ST. MARYS GA  1000      83                N/A     2/ 8
FRYING PAN BUOY  NOT AVBL
BUOY 41025       1000   77     170/  4/  8 1021.8R   4/ 9   3/ 90/ 9
CAPE LOOKOUT NC  1000   80      50/  4/  4 1021.7R
BUOY 41002       0936   77 82  120/ 12/ 21 1021.9R   3/ 8   3/100/ 8
BUOY 41010       1000   81 84  200/  4/  6 1020.5R   3/ 8   3/120/ 8
BUOY 41012       NOT AVBL
ST AUGUSTINE FL  1000   74     250/  6/  8 1020.3R
CAPERS NEARSHORE 0900   80      90/  4/  4   N/A
FRIPP NEARSHORE  NOT AVBL


$$


USA.gov is the U.S. government's official web portal to all federal, state and local government web resources and services.